Keps
Threads by month
- ----- 2025 -----
- February
- January
- ----- 2024 -----
- December
- November
- October
- September
- August
- July
- June
- May
- April
- March
- February
- January
- ----- 2023 -----
- December
- November
- October
- September
- August
- July
- June
- May
- April
- March
- February
- January
- ----- 2022 -----
- December
- November
- October
- September
- August
- July
- June
- May
- April
- March
- February
- January
- ----- 2021 -----
- December
- November
- October
- September
- August
- July
- June
- May
- April
- March
- February
- January
- ----- 2020 -----
- December
- November
- October
- September
- August
- July
- June
- May
- April
- March
- February
- January
- ----- 2019 -----
- December
- November
- October
- September
- August
- July
- June
- May
- April
- March
- February
- January
- ----- 2018 -----
- December
- November
- October
- September
- August
- July
- June
- May
- April
- March
- February
- January
- ----- 2017 -----
- December
- November
- October
- September
- August
- July
- June
- May
- April
- March
- February
- January
- ----- 2016 -----
- December
- November
- October
- September
- August
- July
- June
- May
- April
- March
- February
- January
- ----- 2015 -----
- December
- November
- October
- September
- August
- July
- June
- May
- April
- March
- February
- January
- ----- 2014 -----
- December
- November
- October
- September
- August
- July
- June
- May
- April
- March
- February
- January
- ----- 2013 -----
- December
- November
- October
- September
- August
- July
- June
- May
- April
- March
- February
- January
- ----- 2012 -----
- December
- November
- October
- September
- August
- July
- June
- May
- April
- March
- February
- January
- ----- 2011 -----
- December
- November
- October
- September
- August
- July
- June
- May
- April
- March
- February
- January
- ----- 2010 -----
- December
- November
- October
- September
- August
- July
- June
- May
- April
- March
- February
- January
- ----- 2009 -----
- December
- November
- October
- September
- August
- July
- June
- May
- April
- March
- February
- January
- ----- 2008 -----
- December
- November
- October
- September
- August
- July
- June
- May
- April
- March
- February
- January
- ----- 2007 -----
- December
- November
- October
- September
- August
- July
- June
- May
- April
- March
- February
- January
- ----- 2006 -----
- December
- November
- October
- September
February 2023
- 1 participants
- 8 discussions
23 Feb '23
The following satellite has decayed from orbit and have been removed from
this week's AMSAT-NA TLE distribution:
Oculus-ASR NORAD Cat ID 44348 (decayed from orbit on 02/21/23 per
Space-Track).
Ray Hoad
WA5QGD
AMSAT-NA Orbital Elements Manager
1
0
SB KEPS @ AMSAT $ORB23054.N
2Line Orbital Elements 23054.AMSAT
HR AMSAT ORBITAL ELEMENTS FOR AMATEUR SATELLITES IN NASA FORMAT
FROM WA5QGD FORT WORTH,TX February 23, 2023
BID: ORB23054.N
DECODE 2-LINE ELSETS WITH THE FOLLOWING KEY:
1 AAAAAU 00 0 0 BBBBB.BBBBBBBB .CCCCCCCC 00000-0 00000-0 0 DDDZ
2 AAAAA EEE.EEEE FFF.FFFF GGGGGGG HHH.HHHH III.IIII JJ.JJJJJJJJKKKKKZ
KEY: A-CATALOGNUM B-EPOCHTIME C-DECAY D-ELSETNUM E-INCLINATION F-RAAN
G-ECCENTRICITY H-ARGPERIGEE I-MNANOM J-MNMOTION K-ORBITNUM Z-CHECKSUM
TO ALL RADIO AMATEURS BT
AO-07
1 07530U 74089B 23054.73626088 -.00000044 00000-0 13979-4 0 9999
2 07530 101.9382 40.6881 0011946 281.2440 253.6021 12.53661393209199
UO-11
1 14781U 84021B 23054.56203173 .00002200 00000-0 26800-3 0 9990
2 14781 97.6463 36.0102 0007331 205.0746 155.0114 14.84348950 77285
AO-16
1 20439U 90005D 23054.51506203 .00000258 00000-0 11123-3 0 9994
2 20439 98.8753 41.8832 0010874 170.6975 303.2408 14.33021011728622
LO-19
1 20442U 90005G 23054.51652721 .00000279 00000-0 11819-3 0 9990
2 20442 98.8310 28.6877 0012278 147.4400 212.7543 14.33174189729060
HUBBLE
1 20580U 90037B 23054.13832940 .00005284 00000-0 28881-3 0 9997
2 20580 28.4703 306.2592 0002257 229.0328 257.9226 15.12066264604174
MET-2/21
1 22782U 93055A 23054.46198931 .00000028 00000-0 11540-4 0 9993
2 22782 82.5520 175.0233 0022219 6.3581 63.2684 13.83873491488720
AO-27
1 22825U 93061C 23054.87960462 .00000171 00000-0 83811-4 0 9998
2 22825 98.8582 95.8563 0009112 44.4898 315.7014 14.30250974534364
IO-26
1 22826U 93061D 23054.56166821 .00000165 00000-0 80912-4 0 9994
2 22826 98.8528 95.3990 0009441 32.0682 328.1073 14.30605053534313
FO-29
1 24278U 96046B 23054.46791955 .00000000 00000-0 37312-4 0 9998
2 24278 98.5196 48.5681 0350131 352.1086 7.4631 13.53133908309552
NOAA-15
1 25338U 98030A 23055.00230712 .00000243 00000-0 11945-3 0 9993
2 25338 98.6201 85.9241 0009285 285.2706 74.7448 14.26250154289128
GO-32
1 25397U 98043D 23054.45108806 .00000161 00000-0 90204-4 0 9993
2 25397 98.8542 11.0208 0002374 95.9337 264.2111 14.23825168279148
ISS
1 25544U 98067A 23054.78226885 .00016810 00000-0 30967-3 0 9994
2 25544 51.6389 170.2517 0005291 20.7901 76.9011 15.49263456384209
NO-44
1 26931U 01043C 23054.89670872 .00000307 00000-0 14867-3 0 9999
2 26931 67.0510 129.3339 0006327 283.4521 76.5875 14.30831564117535
SO-50
1 27607U 02058C 23054.96486400 .00001797 00000-0 26329-3 0 9997
2 27607 64.5528 251.9379 0077656 246.6913 112.6004 14.76787144 85716
CO-55
1 27844U 03031E 23054.88203531 .00000558 00000-0 26866-3 0 9995
2 27844 98.6808 63.7929 0010992 93.8784 266.3651 14.22641626 19656
CO-57
1 27848U 03031J 23054.50296557 .00000395 00000-0 19786-3 0 9990
2 27848 98.6847 63.8755 0010836 108.1490 252.0869 14.22170871 19340
RS-22
1 27939U 03042A 23054.71140663 .00001974 00000-0 35322-3 0 9990
2 27939 98.2222 200.9718 0013474 132.9296 227.3049 14.67928885 37897
NOAA-18
1 28654U 05018A 23054.76217377 .00000259 00000-0 16320-3 0 9994
2 28654 98.9204 129.6655 0013767 344.7554 15.3202 14.12869215915556
CO-58
1 28895U 05043F 23054.58879643 .00002291 00000-0 43485-3 0 9999
2 28895 98.1341 187.6848 0017276 72.0901 288.2184 14.65069788924174
CO-65
1 32785U 08021C 23054.16759816 .00004613 00000-0 47078-3 0 9996
2 32785 97.6929 22.7497 0014118 118.0594 242.2054 14.91038674803826
AAUSAT2
1 32788U 08021F 23054.47386261 .00012786 00000-0 10083-2 0 9998
2 32788 97.5563 36.7066 0008756 29.1110 331.0600 15.00844778806037
DO-64
1 32789U 08021G 23054.53208247 .00042098 00000-0 17383-2 0 9992
2 32789 97.3184 77.7519 0009526 151.6633 208.5124 15.23851979810007
CO-66
1 32791U 08021J 23054.89337470 .00007791 00000-0 71890-3 0 9990
2 32791 97.6449 28.7304 0014744 73.9792 286.3052 14.94828813804808
RS-30
1 32953U 08025A 23054.72512833 .00000024 00000-0 10000-3 0 9992
2 32953 82.5041 27.6568 0020676 72.2439 288.0895 12.43119230669553
PRISM
1 33493U 09002B 23054.97111223 .00013628 00000-0 10034-2 0 9993
2 33493 98.2498 61.7753 0018603 67.7648 292.5547 15.03352230766725
NOAA-19
1 33591U 09005A 23054.58010489 .00000201 00000-0 13345-3 0 9996
2 33591 99.1172 98.6092 0013665 198.8915 161.1751 14.12693461723649
SRMSAT
1 37841U 11058D 23054.57130134 .00000497 00000-0 12768-3 0 9993
2 37841 19.9706 176.9234 0011722 223.1096 232.8735 14.10838125586962
HRBE
1 37855U 11061F 23054.31076358 .00030099 00000-0 11111-2 0 9992
2 37855 101.7073 312.9127 0135489 27.6226 333.2108 15.19465240619226
RS-40
1 38735U 12041C 23054.54562596 .00000033 00000-0 16870-3 0 9991
2 38735 82.4750 108.9666 0017423 180.4881 179.6190 12.42591379479700
ZACUBE-1
1 39417U 13066B 23054.45201361 .00005699 00000-0 67594-3 0 9999
2 39417 97.6725 20.2865 0054387 302.5485 57.0483 14.83821182500324
Delfi-N3xt
1 39428U 13066N 23054.85603211 .00005243 00000-0 77954-3 0 9991
2 39428 97.8307 343.8559 0112896 192.3118 167.5327 14.71095923495641
GOMX-1
1 39430U 13066Q 23054.88200979 .00004013 00000-0 70919-3 0 9999
2 39430 97.7943 312.5907 0146630 332.1636 27.1737 14.61128366492999
LO-74
1 39440U 13066AA 23054.43985014 .00005361 00000-0 70759-3 0 9990
2 39440 97.7608 7.0714 0078258 38.1925 322.4795 14.78298780497349
AO-73
1 39444U 13066AE 23054.87230577 .00006711 00000-0 76888-3 0 9998
2 39444 97.6592 23.1571 0052458 287.1439 72.4036 14.85248392499405
SPROUT
1 39770U 14029E 23054.79787529 .00020512 00000-0 18089-2 0 9998
2 39770 97.9569 179.3711 0008846 327.1745 32.8535 14.96419039475162
DTUSAT-2
1 40030U 14033W 23054.77617821 .00006386 00000-0 64038-3 0 9998
2 40030 97.9591 354.0425 0009635 314.4833 45.5597 14.91658471471598
EO-80
1 40032U 14033Y 23054.41659645 .00005852 00000-0 58754-3 0 9996
2 40032 97.9590 353.6965 0009781 316.4293 43.6152 14.91645869471006
HODOYOSHI-1
1 40299U 14070B 23054.63742503 .00011660 00000-0 39602-3 0 9997
2 40299 97.2111 120.3974 0010470 329.8795 185.6145 15.30585030461425
FIREBIRD FU3
1 40377U 15003B 23054.36890597 .00075087 00000-0 14081-2 0 9994
2 40377 99.0770 342.2670 0068437 246.1733 113.2327 15.45784949446912
FIREBIRD FU4
1 40378U 15003C 23054.57140015 .00069289 00000-0 12950-2 0 9991
2 40378 99.0782 342.8047 0068311 244.7490 114.6664 15.45911660446950
GRIFEX
1 40379U 15003D 23054.66726657 .00037343 00000-0 10495-2 0 9992
2 40379 99.0816 324.9826 0095539 301.0614 58.1270 15.31892415445957
XW-2A
1 40903U 15049E 23054.86650134 .00125932 00000-0 78353-3 0 9993
2 40903 97.1362 120.9829 0005735 242.2133 238.1411 15.76573567418481
XW-2C
1 40906U 15049H 23054.96747955 .00012972 00000-0 55322-3 0 9995
2 40906 97.4965 61.9722 0011945 189.9673 199.6724 15.22995064411143
XW-2D
1 40907U 15049J 23054.97662640 .00015320 00000-0 62853-3 0 9991
2 40907 97.4952 62.2587 0011277 182.7770 207.4704 15.24274676411215
LILACSAT-2
1 40908U 15049K 23054.61110036 .00007057 00000-0 35015-3 0 9998
2 40908 97.5246 58.1211 0012980 220.1190 279.5338 15.17948814410559
XW-2E
1 40909U 15049L 23054.51673389 .00026088 00000-0 87453-3 0 9991
2 40909 97.4608 67.1479 0011097 154.6851 356.4004 15.30833553411701
XW-2F
1 40910U 15049M 23054.91505112 .00025928 00000-0 88400-3 0 9990
2 40910 97.4695 66.7535 0011913 155.9079 291.0458 15.30276511411522
XW-2B
1 40911U 15049N 23054.96762612 .00015065 00000-0 62122-3 0 9990
2 40911 97.4934 62.7504 0011310 183.9391 259.7433 15.24106634411097
